Location: �A�n Sefra
(34.9681°N, 0.4346°E)
Time: 13:21:27
(UTC+00:00)

OAO 3 Rocket - Pass Details

Date: 21 October 2019
Orbit: 630 x 682 km, 35.0° (Epoch: 13 November)

Event Time Altitude Azimuth Distance (km) Brightness Sun altitude
Rises 19:04:03 0° 279° (W) 3,005 8.0 -22.7°
Reaches altitude 10° 19:06:30 10° 274° (W) 2,098 6.9 -23.2°
Maximum altitude 19:11:12 47° 201° (SSW) 892 3.9 -24.2°
Enters shadow 19:11:57 43° 173° (S) 943 3.8 -24.4°
